Flag for U.S.A. Weather past 2 weeks in Louisville, Kentucky, U.S.A.

Now
51 °F

Sunny.


Feels Like: 50 °F
Forecast: 46 / 76 °F
Wind: 5 mph from South

Location: Standiford Field

Current Time: May 22, 2015 at 9:10:36 AM

Latest Report: May 22, 2015 at 7:56 AM


Visibility: 9 mi

Pressure: 30.25 "Hg

Humidity: 80%

Dew point: 45 °F

Location of LouisvilleLocation

Historic Weather in Louisville — Graph

°F

Louisville temperature yesterday

Maximum temperature yesterday: 61 °F (at 5:56 PM)
Minimum temperature yesterday: 51 °F (at 11:56 PM)
Average temperature yesterday: 56 °F

Past Weeks' High & Low Weather Summary

 TemperatureHumidityPressure
High88 °F (May 7, 4:56 PM)93% (May 16, 11:56 PM)30.38 "Hg (May 16, 11:56 PM)
Low48 °F (May 22, 6:56 AM)27% (May 8, 5:56 PM)29.89 "Hg (May 11, 4:56 PM)
Average70 °F64%30.10 "Hg
* Reported May 7 7:56 AM — May 22 7:56 AM, Louisville, Weather by CustomWeather, © 2015

Note: Actual official high and low records may vary slightly from our data, if they occured in-between our weather recording intervals... More about our weather records

Advertising

Louisville weather history for previous 24 hours

 ConditionsComfort  
Time TempWeatherWind HumidityBarometerVisibility
7:56 AM
Fri, May 22
51 °FSunny.5 mph80%30.25 "Hg9 mi
6:56 AM48 °FClear.5 mph83%30.23 "Hg8 mi
5:56 AM49 °FClear.3 mph80%30.20 "Hg10 mi
4:56 AM50 °FClear.7 mph80%30.19 "Hg10 mi
3:56 AM50 °FClear.6 mph80%30.17 "Hg10 mi
2:56 AM50 °FClear.6 mph80%30.17 "Hg10 mi
1:56 AM51 °FClear.5 mph77%30.17 "Hg10 mi
12:56 AM51 °FClear.8 mph77%30.17 "Hg10 mi
11:56 PM
Thu, May 21
51 °FPassing clouds.5 mph77%30.17 "Hg10 mi
10:56 PM52 °FClear.6 mph75%30.17 "Hg10 mi
9:56 PM54 °FClear.5 mph67%30.15 "Hg10 mi
8:56 PM56 °FPassing clouds.10 mph60%30.13 "Hg10 mi
7:56 PM59 °FScattered clouds.16 mph51%30.12 "Hg10 mi
6:56 PM59 °FPartly sunny.16 mph54%30.11 "Hg10 mi
5:56 PM61 °FPartly sunny.16 mph54%30.11 "Hg10 mi
4:56 PM58 °FMostly cloudy.15 mph58%30.11 "Hg10 mi
3:56 PM59 °FMostly cloudy.15 mph58%30.12 "Hg10 mi
2:56 PM56 °FOvercast.13 mph65%30.11 "Hg10 mi
1:56 PM57 °FOvercast.12 mph64%30.10 "Hg10 mi
12:56 PM56 °FOvercast.10 mph70%30.08 "Hg10 mi
11:56 AM56 °FMostly cloudy.12 mph72%30.07 "Hg10 mi
10:56 AM55 °FOvercast.12 mph72%30.07 "Hg10 mi
9:56 AM54 °FOvercast.9 mph74%30.08 "Hg10 mi
Weather by CustomWeather, © 2015

See weather overviewHow to use our weather pages